[[{"header":{"parameterUnit":"m.s-1","parameterCategory":1,"la1":30.2991,"la2":30.254,"lo1":-89.0895,"lo2":-89.0444,"dy":0.0017,"dx":0.0017,"nx":28,"ny":28,"refTime":"2023-10-11T09:00:00:Z","depth":0,"parameterNumber":2,"parameterNumberName":"U-component_of_WINDS"},"data":[0,0,0,0,0,0,0,0,0,0,0,0,0,0,0,0,0,0,0,0,0,0,0,0,0,0,0,0,0,0,0,0,0,0,0,0,0,0,0,0,0,0,0,0,0,0,0,0,0,0,0,0,0,0,0,0,0,0,-2.1512,-2.1513,0,-2.1554,-2.1555,-2.1555,-2.1514,-2.1512,-2.1511,-2.1509,-2.1555,-2.1557,-2.156,0,0,0,0,0,0,0,0,0,0,0,0,0,-2.1399,-2.1401,-2.1512,-2.1513,-2.1513,-2.1554,-2.1555,-2.1556,-2.1514,-2.1512,-2.151,-2.1508,-2.1554,-2.1557,-2.156,0,0,0,0,0,0,0,0,0,0,0,0,0,-2.1445,-2.1402,-2.1512,-2.1498,-2.1497,-2.1554,-2.1555,-2.1556,-2.1515,-2.1512,-2.151,-2.1507,-2.1553,-2.1557,-2.1561,-2.1636,0,0,-2.1573,-2.1575,0,0,0,0,0,0,0,0,-2.1443,-2.145,-2.1499,-2.1499,-2.1498,-2.1526,-2.1532,-2.1583,-2.1515,-2.1508,-2.1509,-2.1506,-2.1547,-2.1552,-2.1565,-2.1638,-2.164,-2.1574,-2.1576,-2.1578,-2.1579,0,0,0,0,0,0,0,-2.144,-2.1448,-2.1529,-2.15,-2.1499,-2.149,-2.1494,-2.1541,-2.1541,-2.1508,-2.1505,-2.1511,-2.1547,-2.1561,-2.1566,-2.1641,-2.1574,-2.1577,-2.158,-2.1582,-2.1778,-2.1781,0,0,0,0,0,0,-2.1438,-2.1445,-2.1528,-2.153,-2.1464,-2.1494,-2.1498,-2.152,-2.154,-2.1541,-2.1513,-2.1509,-2.1556,-2.1561,-2.1567,-2.1658,-2.1578,-2.1582,-2.1584,-2.1775,-2.1779,-2.1782,0,0,0,0,0,0,-2.1435,-2.1445,-2.1526,-2.1487,-2.1496,-2.1498,-2.1523,-2.1522,-2.1537,-2.1544,-2.1544,-2.1528,-2.1554,-2.1562,-2.1619,-2.1659,-2.1584,-2.1588,-2.1772,-2.1776,-2.178,-2.1838,0,0,0,0,0,0,-2.1432,-2.1445,-2.1473,-2.1488,-2.1499,-2.1577,-2.1525,-2.1524,-2.1543,-2.1538,-2.1558,-2.1559,-2.1552,-2.1613,-2.1623,-2.1663,-2.1591,-2.1769,-2.1774,-2.1779,-2.1833,-2.1844,-2.1853,0,0,0,0,0,-2.1428,-2.1488,-2.1474,-2.1485,-2.1534,-2.1579,-2.1585,-2.1576,-2.1547,-2.1575,-2.158,-2.1558,-2.1652,-2.1619,-2.163,-2.1672,-2.1766,-2.1773,-2.1779,-2.1828,-2.1842,-2.1853,0,0,0,0,0,0,-2.1478,-2.1489,-2.1475,-2.1541,-2.1559,-2.1572,-2.1607,-2.159,-2.1618,-2.1612,-2.16,-2.1605,-2.1666,-2.1675,-2.1638,-2.1746,-2.1705,-2.1713,-2.1739,-2.1752,-2.1762,-2.1759,-2.1594,0,0,0,0,0,-2.1496,-2.1531,-2.154,-2.1597,-2.1607,-2.1606,-2.1625,-2.1616,-2.1635,-2.1643,-2.1652,-2.1672,-2.1706,-2.1729,-2.1761,-2.1833,-2.1838,-2.1867,-2.1878,-2.1886,-2.1894,-2.1935,-2.1949,-2.1802,-2.1802,-2.1802,0,0,-2.1535,-2.1546,-2.1569,-2.1607,-2.162,-2.1658,-2.1613,-2.1654,-2.1682,-2.165,-2.1705,-2.1712,-2.1734,-2.1799,-2.1829,-2.1808,-2.1936,-2.1894,-2.19,-2.1904,-2.1943,-2.1957,-2.1969,-2.1806,-2.1805,-2.1805,0,0,-2.1625,-2.1636,-2.1686,-2.17,-2.172,-2.1719,-2.1731,-2.1746,-2.175,-2.1804,-2.1781,-2.1815,-2.1873,-2.189,-2.1907,-2.2003,-2.1985,-2.2014,-2.2068,-2.2108,-2.2119,-2.213,-2.2166,-2.2179,-2.2022,-2.2022,-2.2022,0,-2.1671,-2.1726,-2.1714,-2.1757,-2.1775,-2.1746,-2.1797,-2.1812,-2.1842,-2.1856,-2.1832,-2.1906,-2.1918,-2.1988,-2.2012,-2.2025,-2.204,-2.2013,-2.2118,-2.2129,-2.2138,-2.2173,-2.2186,-2.2025,-2.2025,-2.2025,-2.2024,0,-2.1783,-2.1821,-2.1859,-2.1888,-2.191,-2.1957,-2.1953,-2.1977,-2.1966,-2.1968,-2.2025,-2.2039,-2.2073,-2.2089,-2.2079,-2.2158,-2.2145,-2.212,-2.2078,-2.2156,-2.2188,-2.2201,-2.2031,-2.2029,-2.2028,-2.2027,0,0,-2.1907,-2.1928,-2.1942,-2.1956,-2.1976,-2.2006,-2.2052,-2.2085,-2.2107,-2.2128,-2.2168,-2.2218,-2.2195,-2.2214,-2.2206,-2.224,-2.2318,-2.2211,-2.2211,-2.2232,-2.2408,-2.2428,-2.2444,-2.2305,-2.2308,-2.2309,-2.2407,0,-2.1999,-2.2078,-2.2068,-2.2144,-2.2181,-2.2154,-2.2194,-2.2212,-2.2214,-2.2246,-2.2249,-2.2286,-2.2252,-2.2263,-2.2296,-2.2302,-2.2354,-2.2294,-2.2344,-2.2346,-2.2341,-2.246,-2.2481,-2.2573,-2.2419,-2.2422,-2.2423,0,-2.2117,-2.2143,-2.2223,-2.2238,-2.2253,-2.2289,-2.2319,-2.2349,-2.2369,-2.2369,-2.239,-2.2375,-2.2423,-2.2379,-2.2445,-2.2405,-2.2424,-2.243,-2.2433,-2.2439,-2.239,-2.2471,-2.2602,-2.2616,-2.2443,-2.2441,-2.244,0,-2.2202,-2.2256,-2.2311,-2.2323,-2.2342,-2.2369,-2.2378,-2.2395,-2.2416,-2.2442,-2.2456,-2.2487,-2.2506,-2.2531,-2.2526,-2.2494,-2.2595,-2.255,-2.2597,-2.2598,-2.2621,-2.262,-2.2759,-2.2631,-2.263,-2.263,-2.263,0,-2.2307,-2.2357,-2.2349,-2.2384,-2.244,-2.2428,-2.2484,-2.249,-2.2506,-2.2541,-2.2519,-2.2554,-2.2544,-2.2579,-2.2575,-2.2632,-2.2639,-2.2642,-2.2641,-2.2645,-2.2645,-2.2659,-2.2653,-2.2634,-2.2633,-2.2632,-2.2632,0,-2.2412,-2.2408,-2.2467,-2.248,-2.2484,-2.2525,-2.2537,-2.257,-2.257,-2.2616,-2.2626,-2.2628,-2.2667,-2.2664,-2.2708,-2.2706,-2.2776,-2.2767,-2.277,-2.2768,-2.2817,-2.2813,-2.2971,-2.2992,-2.2848,-2.285,-2.2851,0,-2.248,-2.2518,-2.2535,-2.2557,-2.2568,-2.2604,-2.2625,-2.2615,-2.2638,-2.2663,-2.2693,-2.273,-2.276,-2.2824,-2.283,-2.2864,-2.2856,-2.2909,-2.2861,-2.2865,-2.286,-2.2858,-2.2863,-2.2919,-2.2921,-2.2922,-2.2923,0,-2.2602,-2.2598,-2.2629,-2.266,-2.2685,-2.2709,-2.2731,-2.275,-2.2742,-2.277,-2.2809,-2.2832,-2.2877,-2.2915,-2.2947,-2.2958,-2.294,-2.2938,-2.2951,-2.2957,-2.2958,-2.296,-2.2798,-2.2935,-2.2934,-2.2933,-2.2932,-2.2932,-2.2692,-2.2725,-2.2743,-2.2778,-2.2793,-2.2814,-2.2845,-2.285,-2.2882,-2.2918,-2.291,-2.2955,-2.2974,-2.3016,-2.303,-2.3066,-2.3047,-2.3066,-2.3071,-2.3076,-2.3083,-2.295,-2.3071,-2.3071,-2.3071,-2.307,-2.307,0,-2.2815,-2.2824,-2.2857,-2.2888,-2.2916,-2.2895,-2.2918,-2.2943,-2.2983,-2.3002,-2.3031,-2.3077,-2.3114,-2.3122,-2.3158,-2.3185,-2.3178,-2.3195,-2.3194,-2.3197,-2.3096,-2.3082,-2.32,-2.32,-2.32,-2.32,-2.32,-2.32,-2.2882,-2.2938,-2.2936,-2.2999,-2.3009,-2.3052,-2.3067,-2.3087,-2.3102,-2.3155,-2.3185,-2.3189,-2.3205,-2.3241,-2.3274,-2.3276,-2.3291,-2.3312,-2.3311,-2.3217,-2.3204,-2.3192,-2.3178,-2.3315,-2.3315,-2.3409,-2.341,-2.341]},{"header":{"parameterUnit":"m.s-1","parameterCategory":1,"la1":30.2991,"la2":30.254,"lo1":-89.0895,"lo2":-89.0444,"dy":0.0017,"dx":0.0017,"nx":28,"ny":28,"refTime":"2023-10-11T09:00:00:Z","depth":0,"parameterNumber":3,"parameterNumberName":"V-component_of_WINDS"},"data":[0,0,0,0,0,0,0,0,0,0,0,0,0,0,0,0,0,0,0,0,0,0,0,0,0,0,0,0,0,0,0,0,0,0,0,0,0,0,0,0,0,0,0,0,0,0,0,0,0,0,0,0,0,0,0,0,0,0,-2.6562,-2.6562,0,-2.656,-2.656,-2.656,-2.6529,-2.6528,-2.6528,-2.6527,-2.6525,-2.6525,-2.6526,0,0,0,0,0,0,0,0,0,0,0,0,0,-2.6538,-2.6539,-2.6562,-2.6562,-2.6562,-2.656,-2.656,-2.656,-2.6529,-2.6528,-2.6527,-2.6526,-2.6524,-2.6525,-2.6526,0,0,0,0,0,0,0,0,0,0,0,0,0,-2.6544,-2.6539,-2.6562,-2.6546,-2.6545,-2.656,-2.656,-2.656,-2.6529,-2.6528,-2.6527,-2.6526,-2.6524,-2.6525,-2.6526,-2.6556,0,0,-2.6529,-2.653,0,0,0,0,0,0,0,0,-2.6543,-2.6545,-2.6549,-2.6547,-2.6546,-2.6544,-2.6551,-2.6559,-2.653,-2.6535,-2.6527,-2.6525,-2.6532,-2.6532,-2.6534,-2.6556,-2.6556,-2.6529,-2.653,-2.653,-2.6531,0,0,0,0,0,0,0,-2.6543,-2.6544,-2.6561,-2.6549,-2.6547,-2.6539,-2.6539,-2.6552,-2.654,-2.6535,-2.6532,-2.6533,-2.6531,-2.6533,-2.6534,-2.6556,-2.6529,-2.653,-2.6531,-2.6531,-2.6603,-2.6604,0,0,0,0,0,0,-2.6545,-2.6544,-2.6561,-2.6561,-2.6542,-2.6541,-2.654,-2.6545,-2.654,-2.6538,-2.6534,-2.6531,-2.6532,-2.6533,-2.6534,-2.657,-2.653,-2.6531,-2.6532,-2.6602,-2.6603,-2.6605,0,0,0,0,0,0,-2.6544,-2.6547,-2.6561,-2.6552,-2.6553,-2.6542,-2.6549,-2.6546,-2.6549,-2.6539,-2.6537,-2.6539,-2.6531,-2.6532,-2.6551,-2.6569,-2.6532,-2.6533,-2.66,-2.6602,-2.6604,-2.6641,0,0,0,0,0,0,-2.6544,-2.6547,-2.6558,-2.6553,-2.6554,-2.6579,-2.655,-2.6547,-2.6551,-2.6547,-2.6543,-2.6541,-2.6531,-2.655,-2.6552,-2.657,-2.6533,-2.6599,-2.6601,-2.6603,-2.6638,-2.6644,-2.6649,0,0,0,0,0,-2.6543,-2.6568,-2.6559,-2.6561,-2.6568,-2.658,-2.658,-2.6568,-2.6552,-2.6564,-2.6558,-2.6542,-2.6567,-2.6552,-2.6554,-2.6573,-2.6597,-2.66,-2.6603,-2.6636,-2.6643,-2.6649,0,0,0,0,0,0,-2.6575,-2.6567,-2.6557,-2.658,-2.6581,-2.6574,-2.6588,-2.6575,-2.658,-2.6577,-2.656,-2.656,-2.6581,-2.6578,-2.6562,-2.6602,-2.6579,-2.6583,-2.6603,-2.661,-2.6615,-2.6616,-2.6534,0,0,0,0,0,-2.6585,-2.6596,-2.6588,-2.6609,-2.661,-2.6599,-2.6604,-2.6594,-2.6594,-2.6594,-2.6589,-2.659,-2.6598,-2.6603,-2.661,-2.6637,-2.6636,-2.6651,-2.6657,-2.6661,-2.6665,-2.668,-2.6687,-2.6614,-2.6614,-2.6614,0,0,-2.6606,-2.6602,-2.661,-2.6616,-2.6615,-2.6627,-2.66,-2.6613,-2.6621,-2.6596,-2.6614,-2.661,-2.661,-2.6633,-2.6643,-2.6631,-2.6684,-2.6665,-2.6668,-2.667,-2.6684,-2.6691,-2.6697,-2.6616,-2.6616,-2.6616,0,0,-2.6649,-2.6647,-2.6666,-2.6666,-2.6666,-2.6658,-2.6663,-2.6658,-2.6655,-2.6673,-2.6655,-2.6664,-2.6678,-2.6679,-2.6681,-2.6726,-2.6712,-2.6728,-2.6757,-2.6772,-2.6778,-2.6783,-2.68,-2.6806,-2.6732,-2.6732,-2.6732,0,-2.6675,-2.6691,-2.6677,-2.6692,-2.6695,-2.6673,-2.6693,-2.6693,-2.6695,-2.6698,-2.6685,-2.6703,-2.67,-2.6724,-2.6735,-2.6737,-2.6743,-2.6729,-2.6778,-2.6783,-2.6787,-2.6804,-2.681,-2.6734,-2.6734,-2.6733,-2.6733,0,-2.6724,-2.6735,-2.675,-2.6754,-2.6759,-2.6775,-2.6764,-2.677,-2.676,-2.6754,-2.6773,-2.677,-2.6776,-2.6781,-2.677,-2.6803,-2.6796,-2.6781,-2.6758,-2.6797,-2.6812,-2.6818,-2.6737,-2.6736,-2.6735,-2.6735,0,0,-2.6787,-2.6783,-2.6789,-2.6791,-2.6789,-2.6798,-2.6813,-2.682,-2.6827,-2.6829,-2.6842,-2.6855,-2.6841,-2.6843,-2.6833,-2.6846,-2.6883,-2.6829,-2.6829,-2.684,-2.692,-2.6933,-2.6941,-2.6873,-2.6874,-2.6875,-2.6921,0,-2.6831,-2.6858,-2.6846,-2.6875,-2.6886,-2.6866,-2.688,-2.688,-2.6875,-2.6884,-2.6878,-2.6888,-2.6868,-2.687,-2.6881,-2.6876,-2.6899,-2.6872,-2.6886,-2.6887,-2.6888,-2.6948,-2.6961,-2.7005,-2.6927,-2.6928,-2.6928,0,-2.6885,-2.689,-2.692,-2.6917,-2.6921,-2.6934,-2.694,-2.6948,-2.6949,-2.6944,-2.6948,-2.6934,-2.695,-2.6927,-2.6948,-2.693,-2.6935,-2.6933,-2.6935,-2.6936,-2.6911,-2.6953,-2.7018,-2.7025,-2.6937,-2.6936,-2.6936,0,-2.693,-2.6944,-2.6964,-2.6966,-2.6963,-2.6973,-2.6972,-2.6971,-2.6976,-2.6981,-2.6984,-2.699,-2.6994,-2.6999,-2.6988,-2.6972,-2.7012,-2.6987,-2.7009,-2.701,-2.702,-2.7019,-2.7088,-2.7021,-2.7021,-2.7021,-2.702,0,-2.698,-2.7,-2.6985,-2.6998,-2.7019,-2.7005,-2.7027,-2.7023,-2.7023,-2.7035,-2.7017,-2.7028,-2.7012,-2.7022,-2.7014,-2.7034,-2.7035,-2.7032,-2.703,-2.7035,-2.7035,-2.7038,-2.7036,-2.7022,-2.7022,-2.7022,-2.7021,0,-2.7035,-2.7026,-2.7047,-2.7042,-2.7042,-2.7058,-2.7054,-2.7066,-2.7059,-2.7075,-2.7077,-2.7068,-2.7078,-2.7068,-2.7077,-2.7072,-2.7099,-2.7092,-2.7099,-2.7098,-2.7121,-2.7119,-2.7195,-2.7205,-2.713,-2.7131,-2.7131,0,-2.7068,-2.7083,-2.7081,-2.7087,-2.7088,-2.7099,-2.7104,-2.7091,-2.7097,-2.7099,-2.7111,-2.712,-2.7127,-2.7145,-2.7139,-2.7147,-2.714,-2.7166,-2.7141,-2.7146,-2.7142,-2.7142,-2.7144,-2.7172,-2.7172,-2.7173,-2.7174,0,-2.7129,-2.7124,-2.7132,-2.714,-2.7147,-2.7152,-2.7156,-2.7162,-2.7148,-2.7156,-2.7168,-2.7173,-2.7183,-2.7193,-2.7199,-2.7198,-2.7184,-2.7181,-2.7187,-2.7193,-2.7197,-2.7197,-2.7115,-2.718,-2.7179,-2.7179,-2.7179,-2.7178,-2.7175,-2.7187,-2.7188,-2.7199,-2.72,-2.7204,-2.7215,-2.7211,-2.722,-2.7228,-2.7219,-2.7233,-2.7233,-2.724,-2.7241,-2.7251,-2.7241,-2.7248,-2.7251,-2.7253,-2.7257,-2.7195,-2.7252,-2.7252,-2.7252,-2.7252,-2.7252,0,-2.7235,-2.7235,-2.7245,-2.7251,-2.7259,-2.7245,-2.7249,-2.7257,-2.727,-2.7271,-2.7279,-2.7292,-2.7302,-2.7296,-2.7305,-2.7314,-2.7308,-2.7317,-2.7317,-2.7317,-2.7266,-2.7261,-2.7322,-2.7322,-2.7322,-2.7322,-2.7322,-2.7322,-2.7268,-2.7289,-2.7285,-2.7307,-2.7306,-2.732,-2.7323,-2.7327,-2.7328,-2.7344,-2.7352,-2.7349,-2.7348,-2.7356,-2.7365,-2.7363,-2.7367,-2.7379,-2.7375,-2.7328,-2.7321,-2.7314,-2.7309,-2.738,-2.738,-2.7425,-2.7426,-2.7426]}]]